STPSAT-6

Last updated on Thu Jul 03 2025 00:02:48 GMT+0000 (Coordinated Universal Time)

1 49817U 21118A 25183.04480666 -.00000039 00000+0 00000+0 0 9996 2 49817 0.0134 58.6213 0000706 257.6026 228.4822 1.00270508 13066
UTC large
Height (km)
Speed (km/s)
/
Latitude / Longitude
Inclination (degrees)
Orbital Period (minutes)
Azimuth
Elevation
Range (km)
Doppler Factor

Next 0 passes for location: London (51.5072 / 0.1276)

Sorry there are no passes over London.